Location: Bottenau
(48.5138°N, 8.0462°E)
Time: 04:18:47
(UTC+00:00)

Cosmos 540 Rocket - Pass Details

Date: 18 April 2021
Orbit: 741 x 753 km, 74.1° (Epoch: 09 May)

Event Time Altitude Azimuth Distance (km) Brightness Sun altitude
Rises 22:15:17 0° 336° (NNW) 3,198 8.0 -28.3°
Reaches altitude 10° 22:17:39 10° 335° (NNW) 2,268 6.9 -28.4°
Enters shadow 22:22:05 65° 316° (NW) 816 3.7 -28.6°
